| time (UTC) | temp F | wind direction | speed knots | gust knots | rain 1hr in | rain 24hr in | rain mn in | humidity % | barometer mb |
| 20260502194142 | 65 | 277 | 3.5 | 7.8 | 0.00 | 0.00 | 0.00 | 46 | 1008.2 |
| 20260502193142 | 67 | 245 | 2.6 | 4.3 | 0.00 | 0.00 | 0.00 | 46 | 1008.5 |
| 20260502192122 | 66 | 317 | 4.3 | 7.0 | 0.00 | 0.00 | 0.00 | 49 | 1008.7 |
| 20260502191122 | 67 | 345 | 3.5 | 6.1 | 0.00 | 0.00 | 0.00 | 49 | 1008.8 |
| 20260502190122 | 62 | 259 | 2.6 | 4.3 | 0.00 | 0.00 | 0.00 | 53 | 1008.8 |
| 20260502185122 | 62 | 321 | 2.6 | 5.2 | 0.00 | 0.00 | 0.00 | 54 | 1008.9 |
| 20260502184121 | 62 | 298 | 3.5 | 6.1 | 0.00 | 0.00 | 0.00 | 56 | 1009.1 |
| 20260502183122 | 62 | 262 | 2.6 | 5.2 | 0.00 | 0.00 | 0.00 | 57 | 1009.2 |
| 20260502182143 | 62 | 268 | 2.6 | 3.5 | 0.00 | 0.00 | 0.00 | 58 | 1009.2 |
| 20260502181122 | 62 | 331 | 2.6 | 4.3 | 0.00 | 0.00 | 0.00 | 59 | 1009.2 |
| 20260502180124 | 61 | 284 | 2.6 | 6.1 | 0.00 | 0.00 | 0.00 | 62 | 1009.2 |
| 20260502170121 | 59 | 302 | 2.6 | 6.1 | 0.00 | 0.00 | 0.00 | 69 | 1009.8 |
| 20260502164123 | 60 | 343 | 2.6 | 4.3 | 0.00 | 0.00 | 0.00 | 68 | 1010.0 |
| 20260502163125 | 59 | 329 | 2.6 | 4.3 | 0.00 | 0.00 | 0.00 | 69 | 1009.9 |
| 20260502162121 | 59 | 328 | 2.6 | 5.2 | 0.00 | 0.00 | 0.00 | 72 | 1009.8 |
| 20260502161121 | 58 | 290 | 3.5 | 6.1 | 0.00 | 0.00 | 0.00 | 75 | 1010.0 |
| 20260502160121 | 58 | 314 | 3.5 | 5.2 | 0.00 | 0.00 | 0.00 | 76 | 1010.0 |
| 20260502152126 | 58 | 286 | 1.7 | 2.6 | 0.00 | 0.00 | 0.00 | 77 | 1010.1 |
| 20260502151124 | 58 | 351 | 2.6 | 5.2 | 0.00 | 0.00 | 0.00 | 77 | 1010.2 |
| 20260502150121 | 57 | 82 | 2.6 | 4.3 | 0.00 | 0.00 | 0.00 | 79 | 1010.2 |
| 20260502140125 | 55 | 310 | 1.7 | 4.3 | 0.00 | 0.00 | 0.00 | 83 | 1010.2 |
| 20260502130121 | 55 | 118 | 1.7 | 2.6 | 0.00 | 0.00 | 0.00 | 84 | 1010.4 |
| 20260502123142 | 54 | 63 | 1.7 | 3.5 | 0.00 | 0.00 | 0.00 | 86 | 1010.2 |
| 20260502122142 | 53 | 104 | 1.7 | 3.5 | 0.00 | 0.00 | 0.00 | 91 | 1010.2 |
| 20260502121122 | 52 | 101 | 2.6 | 3.5 | 0.00 | 0.00 | 0.00 | 92 | 1010.2 |
| 20260502120122 | 52 | 103 | 2.6 | 4.3 | 0.00 | 0.00 | 0.00 | 93 | 1010.4 |
| 20260502115122 | 52 | 104 | 1.7 | 3.5 | 0.00 | 0.00 | 0.00 | 94 | 1010.4 |
| 20260502114123 | 52 | 306 | 1.7 | 3.5 | 0.00 | 0.00 | 0.00 | 96 | 1010.5 |
| 20260502113142 | 51 | 306 | 1.7 | 3.5 | 0.00 | 0.00 | 0.00 | 96 | 1010.4 |
| 20260502112121 | 51 | 320 | 1.7 | 2.6 | 0.00 | 0.00 | 0.00 | 97 | 1010.2 |
| 20260502111121 | 51 | 324 | 1.7 | 3.5 | 0.00 | 0.00 | 0.00 | 98 | 1009.8 |
| 20260502110142 | 51 | 60 | 1.7 | 4.3 | 0.00 | 0.00 | 0.00 | 99 | 1009.8 |
| 20260502105121 | 50 | 64 | 1.7 | 3.5 | 0.00 | 0.00 | 0.00 | 99 | 1009.6 |
| 20260502104121 | 50 | 108 | 0.9 | 3.5 | 0.00 | 0.00 | 0.00 | 99 | 1009.6 |
| 20260502103122 | 50 | 115 | 1.7 | 2.6 | 0.00 | 0.00 | 0.00 | 99 | 1009.8 |
| 20260502102121 | 50 | 299 | 0.9 | 2.6 | 0.00 | 0.00 | 0.00 | 99 | 1009.7 |
| 20260502101143 | 51 | 270 | 0.0 | 0.0 | 0.00 | 0.00 | 0.00 | 98 | 1009.9 |
| 20260502100143 | 51 | 232 | 0.9 | 1.7 | 0.00 | 0.00 | 0.00 | 97 | 1009.9 |
| 20260502091121 | 51 | 242 | 1.7 | 3.5 | 0.00 | 0.00 | 0.00 | 92 | 1009.7 |
| 20260502090121 | 52 | 215 | 1.7 | 3.5 | 0.00 | 0.00 | 0.00 | 91 | 1009.7 |
| 20260502071125 | 52 | 236 | 1.7 | 5.2 | 0.00 | 0.00 | 0.00 | 89 | 1009.8 |
| 20260502070121 | 51 | 254 | 1.7 | 4.3 | 0.00 | 0.00 | 0.00 | 89 | 1009.8 |
| 20260502065122 | 51 | 235 | 1.7 | 3.5 | 0.00 | 0.00 | 0.00 | 89 | 1009.8 |
| 20260502064121 | 51 | 204 | 1.7 | 3.5 | 0.00 | 0.00 | 0.00 | 89 | 1009.9 |
| 20260502063124 | 51 | 250 | 1.7 | 3.5 | 0.00 | 0.00 | 0.00 | 89 | 1010.0 |
| 20260502062122 | 51 | 231 | 0.9 | 2.6 | 0.00 | 0.00 | 0.00 | 89 | 1010.0 |
| 20260502061122 | 51 | 196 | 1.7 | 3.5 | 0.00 | 0.00 | 0.00 | 87 | 1010.2 |
| 20260502060124 | 51 | 191 | 0.9 | 2.6 | 0.00 | 0.00 | 0.00 | 87 | 1010.2 |
| 20260502055124 | 51 | 186 | 0.9 | 1.7 | 0.00 | 0.00 | 0.00 | 86 | 1010.1 |
| 20260502054122 | 51 | 196 | 0.0 | 1.7 | 0.00 | 0.00 | 0.00 | 84 | 1010.1 |
| 20260502053122 | 52 | 227 | 0.9 | 2.6 | 0.00 | 0.00 | 0.00 | 83 | 1009.9 |
| 20260502052123 | 52 | 227 | 1.7 | 3.5 | 0.00 | 0.00 | 0.00 | 82 | 1010.1 |
| 20260502051121 | 52 | 246 | 0.9 | 3.5 | 0.00 | 0.00 | 0.00 | 81 | 1009.9 |
| 20260502050121 | 52 | 201 | 0.9 | 2.6 | 0.00 | 0.00 | 0.00 | 81 | 1009.9 |
| 20260502045121 | 53 | 242 | 1.7 | 4.3 | 0.00 | 0.00 | 0.00 | 81 | 1009.9 |
| 20260502044121 | 53 | 234 | 1.7 | 3.5 | 0.00 | 0.00 | 0.00 | 81 | 1010.0 |
| 20260502043122 | 53 | 220 | 2.6 | 5.2 | 0.00 | 0.00 | 0.00 | 81 | 1010.2 |
| 20260502042142 | 53 | 253 | 2.6 | 5.2 | 0.00 | 0.00 | 0.00 | 83 | 1010.2 |
| 20260502041121 | 52 | 247 | 2.6 | 5.2 | 0.00 | 0.00 | 0.00 | 84 | 1010.2 |
| 20260502040123 | 52 | 234 | 1.7 | 6.1 | 0.00 | 0.00 | 0.00 | 88 | 1010.1 |
| 20260502035122 | 52 | 176 | 1.7 | 3.5 | 0.00 | 0.00 | 0.00 | 91 | 1010.1 |
| 20260502034122 | 51 | 215 | 1.7 | 2.6 | 0.00 | 0.00 | 0.00 | 93 | 1010.0 |
| 20260502033123 | 51 | 175 | 0.9 | 2.6 | 0.00 | 0.00 | 0.00 | 95 | 1010.0 |
| 20260502032123 | 51 | 183 | 0.9 | 2.6 | 0.00 | 0.00 | 0.00 | 96 | 1010.2 |
| 20260502031123 | 50 | 181 | 0.9 | 2.6 | 0.00 | 0.00 | 0.00 | 97 | 1010.4 |
| 20260502030122 | 50 | 206 | 0.9 | 2.6 | 0.00 | 0.00 | 0.00 | 97 | 1010.5 |
| 20260502025121 | 50 | 172 | 0.9 | 2.6 | 0.00 | 0.00 | 0.00 | 98 | 1010.5 |
| 20260502024122 | 50 | 188 | 0.9 | 2.6 | 0.00 | 0.00 | 0.00 | 97 | 1010.5 |
| 20260502023142 | 50 | 208 | 1.7 | 2.6 | 0.00 | 0.00 | 0.00 | 96 | 1010.5 |
| 20260502022144 | 50 | 202 | 1.7 | 2.6 | 0.00 | 0.00 | 0.00 | 95 | 1010.4 |
| 20260502021123 | 50 | 182 | 0.9 | 1.7 | 0.00 | 0.00 | 0.00 | 95 | 1010.5 |
| 20260502020122 | 50 | 249 | 1.7 | 4.3 | 0.00 | 0.00 | 0.00 | 94 | 1010.5 |
| 20260502015122 | 51 | 200 | 1.7 | 4.3 | 0.00 | 0.00 | 0.00 | 93 | 1010.5 |
| 20260502014122 | 51 | 200 | 0.9 | 2.6 | 0.00 | 0.00 | 0.00 | 91 | 1010.2 |
| 20260502013123 | 51 | 211 | 1.7 | 2.6 | 0.00 | 0.00 | 0.00 | 90 | 1010.2 |
| 20260502012121 | 51 | 222 | 1.7 | 4.3 | 0.00 | 0.00 | 0.00 | 88 | 1010.2 |
| 20260502011121 | 51 | 225 | 1.7 | 3.5 | 0.00 | 0.00 | 0.00 | 86 | 1010.0 |
| 20260502010142 | 52 | 203 | 1.7 | 5.2 | 0.00 | 0.00 | 0.00 | 85 | 1010.0 |
| 20260502005122 | 52 | 240 | 3.5 | 6.1 | 0.00 | 0.00 | 0.00 | 84 | 1010.0 |
| 20260502004121 | 52 | 223 | 2.6 | 4.3 | 0.00 | 0.00 | 0.00 | 83 | 1010.1 |
| 20260502003122 | 53 | 222 | 2.6 | 6.1 | 0.00 | 0.00 | 0.00 | 81 | 1010.0 |
| 20260502002121 | 53 | 218 | 2.6 | 5.2 | 0.00 | 0.00 | 0.00 | 81 | 1009.9 |
| 20260502001122 | 53 | 191 | 2.6 | 5.2 | 0.00 | 0.00 | 0.00 | 80 | 1009.7 |
| 20260502000122 | 53 | 225 | 2.6 | 5.2 | 0.00 | 0.00 | 0.00 | 81 | 1009.6 |
| 20260501235124 | 53 | 228 | 2.6 | 5.2 | 0.00 | 0.00 | 0.00 | 81 | 1009.6 |
| 20260501234121 | 53 | 225 | 2.6 | 7.0 | 0.00 | 0.00 | 0.00 | 80 | 1009.6 |
| 20260501233142 | 53 | 236 | 2.6 | 4.3 | 0.00 | 0.00 | 0.00 | 79 | 1009.5 |
| 20260501232146 | 54 | 230 | 2.6 | 5.2 | 0.00 | 0.00 | 0.00 | 79 | 1009.4 |
| 20260501231123 | 54 | 223 | 2.6 | 6.1 | 0.00 | 0.00 | 0.00 | 78 | 1009.2 |
| 20260501230122 | 54 | 256 | 2.6 | 4.3 | 0.00 | 0.00 | 0.00 | 77 | 1009.2 |
| 20260501225123 | 55 | 237 | 2.6 | 3.5 | 0.00 | 0.00 | 0.00 | 75 | 1009.2 |
| 20260501224121 | 56 | 265 | 3.5 | 7.8 | 0.00 | 0.00 | 0.00 | 73 | 1009.2 |
| 20260501223122 | 57 | 207 | 3.5 | 5.2 | 0.00 | 0.00 | 0.00 | 71 | 1009.2 |
| 20260501222122 | 57 | 216 | 3.5 | 7.8 | 0.00 | 0.00 | 0.00 | 68 | 1009.4 |
| 20260501221122 | 57 | 254 | 3.5 | 5.2 | 0.00 | 0.00 | 0.00 | 68 | 1009.5 |
| 20260501220123 | 57 | 214 | 3.5 | 7.8 | 0.00 | 0.00 | 0.00 | 66 | 1009.5 |
| 20260501215122 | 57 | 238 | 4.3 | 8.7 | 0.00 | 0.00 | 0.00 | 66 | 1009.5 |
| 20260501214144 | 57 | 197 | 4.3 | 6.1 | 0.00 | 0.00 | 0.00 | 66 | 1009.4 |
| 20260501213122 | 58 | 204 | 4.3 | 8.7 | 0.00 | 0.00 | 0.00 | 64 | 1009.2 |
| 20260501212121 | 60 | 229 | 4.3 | 8.7 | 0.00 | 0.00 | 0.00 | 63 | 1009.2 |
| 20260501211121 | 60 | 265 | 4.3 | 7.0 | 0.00 | 0.00 | 0.00 | 60 | 1009.2 |
| 20260501210121 | 61 | 251 | 4.3 | 7.0 | 0.00 | 0.00 | 0.00 | 58 | 1009.2 |
| 20260501205121 | 62 | 249 | 4.3 | 7.8 | 0.00 | 0.00 | 0.00 | 57 | 1009.2 |
| 20260501204125 | 64 | 233 | 4.3 | 8.7 | 0.00 | 0.00 | 0.00 | 53 | 1009.1 |
| 20260501203145 | 64 | 239 | 3.5 | 7.0 | 0.00 | 0.00 | 0.00 | 50 | 1009.0 |
| 20260501202121 | 65 | 278 | 4.3 | 7.8 | 0.00 | 0.00 | 0.00 | 49 | 1009.0 |
| 20260501201142 | 64 | 249 | 5.2 | 8.7 | 0.00 | 0.00 | 0.00 | 49 | 1009.0 |
| 20260501200121 | 66 | 263 | 4.3 | 9.6 | 0.00 | 0.00 | 0.00 | 49 | 1008.9 |
| 20260501195121 | 67 | 254 | 5.2 | 8.7 | 0.00 | 0.00 | 0.00 | 46 | 1008.9 |